Regional Weather Roundup
Issued by NWS

Home | Current Version | Previous Version | Graphics & Text | Print | Product List | Glossary On
Versions: 1 2 3 4 5 6 7 8 9 10 11 12 13 14 15 16 17 18 19 20 21 22 23 24 25 26 27 28 29 30 31 32 33 34 35 36 37 38 39 40 41 42 43 44 45 46 47 48 49 50
000
ASUS45 KSLC 302110
RWRUT

UTAH REGIONAL WEATHER ROUNDUP
NATIONAL WEATHER SERVICE SALT LAKE CITY UT
300 PM MDT TUE JUN 30 2015

UTZ001>011-023>025-302200-

NORTHERN UTAH

CITY           SKY/WX    TMP DP  RH WIND       PRES   REMARKS
BRIGHAM CITY   SUNNY     97  39  13 S8        30.03F HX  92
HILL AFB       SUNNY     95  52  23 W9        30.08F HX  92
LOGAN          SUNNY     96  45  17 CALM      30.04F HX  92
OGDEN          SUNNY     97  46  17 VRB6      30.04F HX  93
PROVO AIRPORT  PTSUNNY   97  48  19 CALM      30.04F HX  93
SALT LAKE CITY MOSUNNY   99  50  19 NW8       30.01F HX  96
VERNAL         PTSUNNY   86  42  21 NW20G25   30.14R
WENDOVER       MOSUNNY  100  45  15 E13       30.02F HX  96
HEBER CITY     SUNNY     97  41  14 N5        30.13F HX  92
WEST JORDAN    SUNNY     99  50  19 N14       30.06F HX  95

$$

UTZ012>022-026-027-302200-

SOUTHERN/CENTRAL UTAH

CITY           SKY/WX    TMP DP  RH WIND       PRES   REMARKS
BLANDING       SUNNY     93  44  18 SE8       30.21F
BRYCE CANYON   PTSUNNY   87  40  19 SW3       30.31F
CEDAR CITY     CLOUDY    86  43  22 E10       30.14F
DELTA          SUNNY     98  38  12 CALM      30.05F HX  93
HANKSVILLE     SUNNY    102  37  10 S9        30.01F HX  96
MILFORD        MOSUNNY  100  41  13 SE6       30.04F HX  95
MOAB/CYNLANDS  SUNNY    103  41  12 NW7       29.97F HX  98
PRICE          PTSUNNY   93  41  16 S9        30.13S
ST GEORGE      CLEAR    106  50  15 W13       29.89F HX 103
KANAB          MOSUNNY   99  41  13 CALM      30.10F HX  94

$$

REGIONAL REPORTS     COLORADO/ARIZONA

CITY           SKY/WX    TMP DP  RH WIND       PRES   REMARKS
CRAIG, CO      MOSUNNY   95  40  14 W9        30.14F HX  91
GRAND JUNCTION MOSUNNY   98  40  13 W10G17    30.02F HX  93
RIFLE          MOSUNNY   98  41  14 CALM      30.08F HX  93
MONTROSE       SUNNY     96  41  15 W10       30.12F HX  92
CORTEZ         SUNNY     94  44  17 N9G18     30.14F HX  90
PAGE, AZ       SUNNY    103  42  12 VRB7      29.99F HX  98
GRAND CANYON   LGT RAIN  78  58  49 SW7       30.25F
KINGMAN        SUNNY    101  51  18 SW14G24   30.01F HX  98
FLAGSTAFF      SUNNY     84  50  30 VRB5G17   30.27F

$$

REGIONAL REPORTS    NEVADA/IDAHO/WYOMING

CITY           SKY/WX    TMP DP  RH WIND       PRES   REMARKS
LAS VEGAS, NV  MOSUNNY  109  46  12 S12       29.80F HX 105
ELY            CLOUDY    84  49  29 NW10      30.21R
ELKO           MOSUNNY   97  43  15 SW14      30.09F HX  93
POCATELLO, ID  SUNNY     92  52  25 S6        30.07F
BURLEY         SUNNY     94  51  23 VRB6      30.04F HX  91
EVANSTON, WY   PTSUNNY   85  42  22 NW16G22   30.26F
ROCK SPRINGS   MOSUNNY   91  43  18 W16G24    30.19F
KEMMERER       SUNNY     88  41  19 NW16G28   30.28F

$$


USA.gov is the U.S. government's official web portal to all federal, state and local government web resources and services.